Погода в Бродарице

Хорватия     43°40′47″N   15°55′06″E
темп.,
°C
ветер,
м/с
пор.,
м/с
влажн.,
%
обл.,
%
осадки,
мм/ч
давл.,
гПа
погр.,
м
17 августа, ср
ср1723:00+22вюв23680 0.0 101342
02:00+21всв21680 0.0 101316
05:00+20всв21680 0.0 101314
08:00+24всв11550 0.0 1014180
11:00+29зюз43410 0.0 1014996
14:00+29зюз43430 0.0 1014823
17:00+29з32450 0.0 1013674
20:00+24ссв11660 0.0 101314
18 августа, чт
чт1823:00+23всв22640 0.0 101314
02:00+23юв11650 0.0 101211
05:00+22всв22620 0.0 101115
08:00+26в22460 0.0 1012140
11:00+33юз332563 0.0 1012975
14:00+35ююз542293 0.0 10101305
17:00+33ююз44275 0.0 1010593
20:00+27сз22414 0.1 101016
19 августа, пт
пт1923:00+26в45432 0.1 100871
02:00+25в334194 0.1 100746
05:00+23с3472100 0.0 1010132
08:00+24с125286 0.0 100963
11:00+27ююв364819 0.7 1008215
14:00+32ю68420 0.8 10071441
17:00+28юз56560 0.0 1008751
20:00+24з11640 0.1 100818
20 августа, сб
сб2023:00+21ссв11778 1.3 101020
02:00+21с117999 1.8 101019
05:00+20с12815 0.7 101030
08:00+22ссв126967 0.9 1011180
11:00+28сз33475 0.0 1011984
14:00+29з764920 0.0 1011838
17:00+31з563728 0.0 10091852
20:00+26с410475 0.0 1010313
21 августа, вс
вс2123:00+23ссв35590 0.0 101195
02:00+21ссв39625 0.0 1012216
05:00+21ссв512594 0.0 1012323
08:00+23ссв512480 0.0 1012795
11:00+29ссв79340 0.0 10121662
14:00+31ссв79300 0.0 10102022
17:00+30ссв89320 0.0 10101863
20:00+25ссв49420 0.0 1010272